Flag for Germany Weather past 2 weeks in Gaggenau, Baden-Württemberg, Germany

Now
72 °F

Sunny.


Feels Like: 76 °F
Forecast: 55 / 80 °F
Wind: 5 mph from North

Location: Karlsruhe - Baden Wurttemberg

Current Time: Jul 24, 2014 at 10:04:51 PM

Latest Report: Jul 24, 2014 at 9:20 PM


Visibility: 10 mi

Pressure: 29.89 "Hg

Humidity: 61%

Dew point: 57 °F

Location of GaggenauLocation

Historic Weather in Gaggenau — Graph

°F

Gaggenau temperature yesterday

Maximum temperature yesterday: 84 °F (at 4:20 PM)
Minimum temperature yesterday: 63 °F (at 4:50 AM)
Average temperature yesterday: 75 °F

Past Weeks' High & Low Weather Summary

 TemperatureHumidityPressure
High93 °F (Jul 19, 5:20 PM)94% (Jul 9, 8:50 PM)30.18 "Hg (Jul 9, 8:50 PM)
Low54 °F (Jul 9, 8:50 PM)24% (Jul 18, 4:20 PM)29.74 "Hg (Jul 10, 4:50 AM)
Average71 °F66%29.95 "Hg
* Reported Jul 9 8:20 PM — Jul 24 8:50 PM, Gaggenau, Weather by CustomWeather, © 2014

Note: Actual official high and low records may vary slightly from our data, if they occured in-between our weather recording intervals... More about our weather records

Advertising

Gaggenau weather history for previous 24 hours

 ConditionsComfort  
Time TempWeatherWind HumidityBarometerVisibility
8:50 PM
Jul 24
73 °FSunny.5 mph57%29.86 "Hg10 mi
8:20 PM77 °FSunny.2 mph47%29.86 "Hg10 mi
7:50 PM79 °FSunny.3 mph42%29.86 "Hg10 mi
7:20 PM79 °FSunny.6 mph37%29.86 "Hg10 mi
6:50 PM81 °FSunny.8 mph34%29.86 "Hg10 mi
6:20 PM81 °FSunny.8 mph37%29.86 "Hg10 mi
5:50 PM81 °FSunny.8 mph32%29.86 "Hg10 mi
5:20 PM81 °FPassing clouds.8 mph30%29.86 "HgN/A
4:50 PM81 °FPassing clouds.8 mph32%29.86 "HgN/A
4:20 PM81 °FPassing clouds.8 mph30%29.86 "HgN/A
3:50 PM81 °FPassing clouds.8 mph34%29.86 "HgN/A
3:20 PM81 °FPassing clouds.9 mph37%29.89 "HgN/A
2:50 PM81 °FPassing clouds.9 mph34%29.89 "HgN/A
2:20 PM79 °FSunny.9 mph48%29.89 "Hg10 mi
1:50 PM79 °FSunny.10 mph45%29.89 "Hg10 mi
1:20 PM77 °FSunny.10 mph51%29.89 "Hg10 mi
12:50 PM77 °FPassing clouds.9 mph51%29.89 "HgN/A
12:20 PM75 °FSunny.10 mph54%29.89 "Hg10 mi
11:50 AM75 °FSunny.8 mph54%29.89 "Hg10 mi
11:20 AM75 °FSunny.9 mph54%29.89 "Hg10 mi
10:50 AM73 °FSunny.8 mph57%29.89 "Hg10 mi
10:20 AM73 °FSunny.9 mph57%29.89 "Hg10 mi
9:50 AM72 °FSunny.10 mph57%29.89 "Hg10 mi
9:20 AM72 °FSunny.12 mph57%29.89 "Hg10 mi
8:50 AM70 °FSunny.13 mph57%29.89 "Hg10 mi
8:20 AM68 °FSunny.13 mph60%29.89 "Hg10 mi
7:50 AM68 °FSunny.10 mph64%29.89 "Hg10 mi
7:20 AM66 °FSunny.7 mph68%29.89 "Hg10 mi
6:50 AM64 °FSunny.7 mph73%29.89 "Hg10 mi
6:20 AM63 °FClear.8 mph77%29.89 "Hg10 mi
5:50 AM63 °FClear.9 mph77%29.89 "Hg10 mi
5:20 AM63 °FClear.7 mph73%29.89 "Hg10 mi
4:50 AM64 °FClear.6 mph73%29.89 "Hg10 mi
11:50 PM
Jul 23
70 °FClear.8 mph57%29.92 "Hg10 mi
11:20 PM68 °FClear.7 mph64%29.92 "Hg10 mi
10:50 PM68 °FClear.8 mph64%29.92 "Hg10 mi
10:20 PM72 °FClear.7 mph57%29.92 "Hg10 mi
Weather by CustomWeather, © 2014

See weather overviewHow to use our weather pages